[[{"header":{"parameterUnit":"m.s-1","parameterCategory":1,"la1":30.2992,"la2":30.254,"lo1":-89.0895,"lo2":-89.0443,"dy":0.0025,"dx":0.0025,"nx":19,"ny":19,"refTime":"2026-05-11T09:00:00:Z","depth":0,"parameterNumber":2,"parameterNumberName":"U-component_of_WINDS"},"data":[0,0,0,-1.2437,-1.2437,-1.243,-1.243,-1.2436,-1.2436,0,0,0,0,0,0,0,0,0,0,0,-1.2447,-1.2448,-1.2437,-1.2437,-1.243,-1.243,-1.2436,-1.2436,0,0,0,0,0,0,0,0,0,0,0,-1.2447,-1.2448,-1.2448,-1.2437,-1.243,-1.243,-1.2436,-1.2436,0,0,0,0,0,0,0,0,0,0,-1.244,-1.2458,-1.2448,-1.2448,-1.2437,-1.243,-1.243,-1.2436,-1.2436,-1.2446,0,-1.2456,0,-1.2447,-1.2438,-1.2438,0,0,0,-1.243,-1.2458,-1.2449,-1.2448,-1.2437,-1.243,-1.2431,-1.2436,-1.2436,-1.2447,-1.2456,-1.2456,-1.2447,-1.2438,-1.2438,-1.2516,-1.2517,0,0,-1.2431,-1.2451,-1.2448,-1.2449,-1.245,-1.2431,-1.2431,-1.2436,-1.2448,-1.2456,-1.2456,-1.2447,-1.2438,-1.2438,-1.2516,-1.2517,0,0,0,-1.2436,-1.2451,-1.2441,-1.2449,-1.2447,-1.2431,-1.2431,-1.2448,-1.2443,-1.2456,-1.2447,-1.2438,-1.2439,-1.2515,-1.2516,-1.2569,0,0,0,-1.2436,-1.2454,-1.2442,-1.2454,-1.2447,-1.2447,-1.2443,-1.2442,-1.2442,-1.2447,-1.2438,-1.2439,-1.2514,-1.2516,-1.2566,-1.2591,0,0,0,-1.2445,-1.2455,-1.2457,-1.2455,-1.2453,-1.2446,-1.2441,-1.2442,-1.2437,-1.2438,-1.2439,-1.2514,-1.2515,-1.2563,-1.2586,-1.2619,0,0,0,-1.246,-1.2503,-1.2458,-1.2503,-1.2453,-1.2479,-1.2441,-1.246,-1.2466,-1.2438,-1.2514,-1.2516,-1.2562,-1.2584,-1.2616,-1.2651,-1.2666,0,0,-1.2526,-1.2512,-1.2537,-1.2496,-1.2536,-1.2479,-1.2526,-1.2513,-1.2495,-1.2511,-1.2512,-1.2567,-1.2586,-1.2618,-1.2747,-1.276,0,0,0,-1.2564,-1.2583,-1.2589,-1.2597,-1.2588,-1.2584,-1.2562,-1.2558,-1.2571,-1.2507,-1.2586,-1.2597,-1.2615,-1.2631,-1.2642,-1.2657,-1.2524,-1.2524,-1.2523,-1.2685,-1.2661,-1.2701,-1.2677,-1.2685,-1.2663,-1.2668,-1.2659,-1.263,-1.265,-1.2655,-1.2736,-1.2755,-1.2763,-1.2779,-1.267,-1.267,-1.267,-1.267,-1.278,-1.2803,-1.2767,-1.2793,-1.2767,-1.2789,-1.2771,-1.2751,-1.2768,-1.2729,-1.2744,-1.2704,-1.2777,-1.279,-1.2674,-1.2673,-1.2673,-1.2673,-1.2672,-1.2858,-1.2865,-1.2859,-1.287,-1.2881,-1.2855,-1.2875,-1.285,-1.2827,-1.2842,-1.2845,-1.2844,-1.2842,-1.2845,-1.2845,-1.2846,-1.2846,-1.2846,-1.2846,-1.294,-1.2933,-1.2952,-1.2949,-1.2952,-1.2954,-1.2934,-1.2937,-1.2934,-1.2915,-1.2915,-1.2886,-1.2789,-1.2765,-1.2851,-1.285,-1.2849,-1.2849,-1.2849,-1.3047,-1.302,-1.3049,-1.3053,-1.3049,-1.3064,-1.3033,-1.3041,-1.304,-1.3051,-1.302,-1.2951,-1.2935,-1.2927,-1.2907,-1.3024,-1.3024,-1.3024,-1.3024,-1.3113,-1.3103,-1.313,-1.3137,-1.3142,-1.3118,-1.3155,-1.3142,-1.3123,-1.3122,-1.3101,-1.3074,-1.3066,-1.3054,-1.3043,-1.3024,-1.3168,-1.3168,-1.3169,-1.3179,-1.3168,-1.3204,-1.3185,-1.3181,-1.3179,-1.3214,-1.3226,-1.3199,-1.3174,-1.3121,-1.3115,-1.3069,-1.3055,-1.3029,-1.3012,-1.2977,0,0]},{"header":{"parameterUnit":"m.s-1","parameterCategory":1,"la1":30.2992,"la2":30.254,"lo1":-89.0895,"lo2":-89.0443,"dy":0.0025,"dx":0.0025,"nx":19,"ny":19,"refTime":"2026-05-11T09:00:00:Z","depth":0,"parameterNumber":3,"parameterNumberName":"V-component_of_WINDS"},"data":[0,0,0,1.2495,1.2496,1.2552,1.2552,1.2609,1.261,0,0,0,0,0,0,0,0,0,0,0,1.2472,1.2472,1.2495,1.2496,1.2552,1.2552,1.2609,1.261,0,0,0,0,0,0,0,0,0,0,0,1.2472,1.2472,1.2472,1.2497,1.2552,1.2553,1.2609,1.2572,0,0,0,0,0,0,0,0,0,0,1.252,1.2492,1.2472,1.2472,1.2497,1.2552,1.2553,1.257,1.2574,1.2578,0,1.2582,0,1.2597,1.2613,1.2613,0,0,0,1.2501,1.2489,1.251,1.2472,1.2497,1.2552,1.2528,1.2573,1.2577,1.2583,1.2583,1.2586,1.2598,1.2613,1.2613,1.2625,1.2625,0,0,1.2498,1.2478,1.2507,1.2513,1.2505,1.2527,1.253,1.2575,1.2573,1.2583,1.2587,1.2599,1.2613,1.2614,1.2625,1.2625,0,0,0,1.2486,1.2476,1.2496,1.251,1.2521,1.2528,1.2532,1.2571,1.2579,1.2588,1.2599,1.2614,1.2614,1.2626,1.2625,1.2597,0,0,0,1.2484,1.2469,1.2495,1.2483,1.252,1.2547,1.2526,1.2576,1.2582,1.2599,1.2614,1.2615,1.2626,1.2626,1.2598,1.2587,0,0,0,1.2471,1.2467,1.2473,1.2482,1.2505,1.2547,1.2558,1.2578,1.2589,1.2613,1.2615,1.2626,1.2626,1.2599,1.2589,1.2583,0,0,0,1.245,1.2448,1.2472,1.2474,1.2504,1.253,1.2558,1.2578,1.2595,1.2614,1.2626,1.2625,1.26,1.259,1.2584,1.2573,1.2567,0,0,1.2436,1.2445,1.2448,1.2472,1.2487,1.2523,1.2534,1.2569,1.2589,1.2611,1.2612,1.2598,1.2589,1.2583,1.2544,1.2539,0,0,0,1.2437,1.2438,1.2447,1.2463,1.249,1.2511,1.2546,1.2558,1.2578,1.2597,1.2596,1.2591,1.2588,1.2584,1.258,1.2578,1.2623,1.2623,1.2623,1.2388,1.2414,1.2419,1.2451,1.2466,1.2502,1.2516,1.2538,1.2561,1.256,1.2566,1.254,1.2534,1.2531,1.2529,1.2564,1.2564,1.2564,1.2564,1.2368,1.2373,1.2402,1.2418,1.2445,1.2457,1.2491,1.2506,1.252,1.2537,1.2536,1.2552,1.2525,1.2524,1.2562,1.2562,1.2562,1.2563,1.2563,1.2338,1.2345,1.236,1.2385,1.24,1.2433,1.2445,1.2469,1.2492,1.2491,1.2499,1.25,1.2501,1.2494,1.2493,1.2493,1.2493,1.2493,1.2493,1.2299,1.2318,1.2326,1.2353,1.2365,1.2384,1.2419,1.2431,1.2451,1.2467,1.2468,1.2488,1.2519,1.2524,1.2492,1.2492,1.2492,1.2492,1.2492,1.2268,1.2278,1.229,1.2303,1.2335,1.2347,1.2378,1.2401,1.2415,1.2419,1.244,1.2459,1.247,1.2474,1.2478,1.2436,1.2436,1.2436,1.2436,1.2241,1.2249,1.2265,1.2283,1.2303,1.2332,1.2341,1.2367,1.2396,1.2405,1.2415,1.2424,1.2427,1.2436,1.2441,1.2445,1.2395,1.2395,1.2395,1.2221,1.2232,1.2237,1.2266,1.2292,1.2314,1.2323,1.234,1.2375,1.2394,1.2413,1.2414,1.243,1.2434,1.2452,1.2458,1.2467,0,0]}]]